QPF
0.04 0.05 0.05 0.04 0.03 0.03 0.03 0.04 0.03 0.04 0.05 0.07 0.07 0.07 0.07 0.07 0.07 0.06 0.06 0.05 0.05 0.07 0.09 0.10 0.10 0.09 0.06 0.04 0.04 0.03 0.03 0.02 0.02 0.01 0.01 0.01 0.01 0.00 0.00 0.00 0.00 0.00 0.00
0.05 0.05 0.04 0.04 0.04 0.03 0.03 0.03 0.05 0.06 0.06 0.06 0.05 0.05 0.05 0.06 0.06 0.05 0.04 0.03 0.03 0.04 0.05 0.05 0.05 0.04 0.02 0.02 0.01 0.01 0.01 0.01 0.01 0.01 0.01 0.01 0.00 0.00 0.00 0.00 0.00 0.00 0.00
0.06 0.06 0.04 0.04 0.04 0.04 0.03 0.02 0.04 0.05 0.06 0.05 0.04 0.04 0.04 0.03 0.03 0.03 0.03 0.03 0.02 0.02 0.02 0.02 0.02 0.01 0.01 0.00 0.00 0.00 0.00 0.00 0.00 0.01 0.01 0.01 0.00 0.00 0.00 0.00 0.00 0.00 0.00
0.06 0.07 0.05 0.03 0.03 0.04 0.05 0.04 0.03 0.03 0.04 0.04 0.04 0.04 0.03 0.03 0.02 0.01 0.01 0.01 0.01 0.01 0.01 0.00 0.00 0.00 0.00 0.00 0.00 0.00 0.00 0.00 0.00 0.00 0.00 0.00 0.00 0.00 0.00 0.00 0.00 0.00 0.00
0.06 0.06 0.05 0.04 0.04 0.04 0.04 0.05 0.03 0.02 0.02 0.02 0.02 0.02 0.02 0.01 0.01 0.01 0.00 0.00 0.00 0.00 0.00 0.00 0.00 0.00 0.00 0.00 0.00 0.00 0.00 0.00 0.00 0.00 0.00 0.00 0.00 0.00 0.00 0.00 0.00 0.00 0.00
0.06 0.05 0.04 0.04 0.04 0.04 0.04 0.05 0.03 0.02 0.02 0.02 0.01 0.01 0.01 0.01 0.00 0.00 0.00 0.00 0.00 0.00 0.00 0.00 0.00 0.00 0.00 0.00 0.00 0.00 0.00 0.00 0.00 0.00 0.00 0.00 0.00 0.00 0.00 0.00 0.00 0.00 0.00
0.04 0.03 0.03 0.03 0.04 0.04 0.04 0.05 0.04 0.04 0.03 0.02 0.01 0.01 0.00 0.00 0.00 0.00 0.00 0.00 0.00 0.00 0.00 0.00 0.00 0.00 0.00 0.00 0.00 0.00 0.00 0.00 0.00 0.00 0.00 0.00 0.00 0.00 0.00 0.00 0.00 0.00 0.00
0.05 0.04 0.03 0.03 0.03 0.03 0.03 0.04 0.03 0.02 0.02 0.02 0.01 0.01 0.00 0.00 0.00 0.00 0.00 0.00 0.00 0.00 0.00 0.00 0.00 0.00 0.00 0.00 0.00 0.00 0.00 0.00 0.00 0.00 0.00 0.00 0.00 0.00 0.00 0.00 0.00 0.00 0.00
0.04 0.05 0.05 0.04 0.03 0.02 0.02 0.03 0.03 0.02 0.02 0.02 0.02 0.01 0.00 0.00 0.00 0.00 0.00 0.00 0.00 0.00 0.00 0.00 0.00 0.00 0.00 0.00 0.00 0.00 0.00 0.00 0.00 0.00 0.00 0.00 0.00 0.00 0.00 0.00 0.00 0.00 0.00
0.04 0.04 0.04 0.03 0.02 0.02 0.02 0.02 0.02 0.02 0.02 0.02 0.01 0.01 0.00 0.00 0.00 0.00 0.00 0.00 0.00 0.00 0.00 0.00 0.00 0.00 0.00 0.00 0.00 0.00 0.00 0.00 0.00 0.00 0.00 0.00 0.00 0.00 0.00 0.00 0.00 0.00 0.01
0.04 0.03 0.03 0.02 0.02 0.02 0.02 0.02 0.02 0.02 0.02 0.02 0.01 0.01 0.00 0.00 0.00 0.00 0.00 0.00 0.00 0.00 0.00 0.00 0.00 0.00 0.00 0.00 0.00 0.00 0.00 0.00 0.00 0.00 0.00 0.00 0.00 0.00 0.00 0.00 0.00 0.00 0.01
0.04 0.03 0.02 0.02 0.02 0.02 0.02 0.02 0.02 0.02 0.02 0.02 0.02 0.01 0.01 0.01 0.00 0.00 0.00 0.00 0.00 0.00 0.00 0.00 0.00 0.00 0.00 0.00 0.00 0.00 0.00 0.00 0.00 0.00 0.00 0.00 0.00 0.00 0.00 0.00 0.00 0.00 0.00
0.05 0.05 0.04 0.03 0.02 0.02 0.01 0.02 0.02 0.02 0.02 0.02 0.02 0.01 0.01 0.01 0.00 0.00 0.00 0.00 0.00 0.00 0.00 0.00 0.00 0.00 0.00 0.00 0.00 0.00 0.00 0.00 0.00 0.00 0.00 0.00 0.00 0.00 0.00 0.00 0.00 0.00 0.00
0.05 0.05 0.04 0.03 0.02 0.02 0.01 0.01 0.01 0.01 0.01 0.01 0.01 0.01 0.01 0.01 0.00 0.00 0.00 0.00 0.00 0.00 0.00 0.00 0.00 0.00 0.00 0.00 0.00 0.00 0.00 0.00 0.00 0.00 0.00 0.00 0.00 0.00 0.00 0.00 0.00 0.00 0.00
0.04 0.03 0.02 0.01 0.01 0.01 0.01 0.01 0.01 0.01 0.00 0.00 0.00 0.00 0.00 0.00 0.00 0.00 0.00 0.00 0.00 0.00 0.00 0.00 0.00 0.00 0.00 0.00 0.00 0.00 0.00 0.00 0.00 0.00 0.00 0.00 0.00 0.00 0.00 0.00 0.00 0.00 0.00
0.02 0.01 0.01 0.01 0.01 0.01 0.00 0.00 0.00 0.01 0.00 0.00 0.00 0.00 0.00 0.00 0.00 0.00 0.00 0.00 0.00 0.00 0.00 0.00 0.00 0.00 0.00 0.00 0.00 0.00 0.00 0.00 0.00 0.00 0.00 0.00 0.00 0.00 0.00 0.00 0.00 0.00 0.00
0.01 0.01 0.01 0.01 0.01 0.00 0.00 0.00 0.00 0.00 0.00 0.00 0.00 0.00 0.00 0.00 0.00 0.00 0.00 0.00 0.00 0.00 0.00 0.00 0.00 0.00 0.00 0.00 0.00 0.00 0.00 0.00 0.00 0.00 0.00 0.00 0.00 0.00 0.00 0.00 0.00 0.00 0.00
0.01 0.00 0.00 0.00 0.00 0.00 0.00 0.00 0.00 0.00 0.00 0.00 0.00 0.00 0.00 0.00 0.00 0.00 0.00 0.00 0.00 0.00 0.00 0.00 0.00 0.00 0.00 0.00 0.00 0.00 0.00 0.00 0.00 0.00 0.00 0.00 0.00 0.00 0.00 0.00 0.00 0.00 0.00
0.00 0.00 0.00 0.00 0.00 0.00 0.00 0.00 0.00 0.00 0.00 0.00 0.00 0.00 0.00 0.00 0.00 0.00 0.00 0.00 0.00 0.00 0.00 0.00 0.00 0.00 0.00 0.00 0.00 0.00 0.00 0.00 0.00 0.00 0.00 0.00 0.00 0.00 0.00 0.00 0.00 0.00 0.00
0.00 0.00 0.00 0.00 0.00 0.00 0.00 0.00 0.00 0.00 0.00 0.00 0.00 0.00 0.00 0.00 0.00 0.00 0.00 0.00 0.00 0.00 0.00 0.00 0.00 0.00 0.00 0.00 0.00 0.00 0.00 0.00 0.00 0.00 0.00 0.00 0.00 0.00 0.00 0.00 0.00 0.00 0.00
0.00 0.00 0.00 0.00 0.00 0.00 0.00 0.00 0.00 0.00 0.00 0.00 0.00 0.00 0.00 0.00 0.00 0.00 0.00 0.00 0.00 0.00 0.00 0.00 0.00 0.00 0.00 0.00 0.00 0.00 0.00 0.00 0.00 0.00 0.00 0.00 0.00 0.00 0.00 0.00 0.00 0.00 0.00
0.00 0.00 0.00 0.00 0.00 0.00 0.00 0.00 0.00 0.00 0.00 0.00 0.00 0.00 0.00 0.00 0.00 0.00 0.00 0.00 0.00 0.00 0.00 0.00 0.00 0.00 0.00 0.00 0.00 0.00 0.00 0.00 0.00 0.00 0.00 0.00 0.00 0.00 0.00 0.00 0.00 0.00 0.00
0.00 0.00 0.00 0.00 0.00 0.00 0.00 0.00 0.00 0.00 0.00 0.00 0.00 0.00 0.00 0.00 0.00 0.00 0.00 0.00 0.00 0.00 0.00 0.00 0.00 0.00 0.00 0.00 0.00 0.00 0.00 0.00 0.00 0.00 0.00 0.00 0.00 0.00 0.00 0.00 0.00 0.00 0.00
0.00 0.00 0.00 0.00 0.00 0.00 0.00 0.00 0.00 0.00 0.00 0.00 0.00 0.00 0.00 0.00 0.00 0.00 0.00 0.00 0.00 0.00 0.00 0.00 0.00 0.00 0.00 0.00 0.00 0.00 0.00 0.00 0.00 0.00 0.00 0.00 0.00 0.00 0.00 0.00 0.00 0.00 0.00
0.00 0.00 0.00 0.00 0.00 0.00 0.00 0.00 0.00 0.00 0.00 0.00 0.00 0.00 0.00 0.00 0.00 0.00 0.00 0.00 0.00 0.00 0.00 0.00 0.00 0.00 0.00 0.00 0.00 0.00 0.00 0.00 0.00 0.00 0.00 0.00 0.00 0.00 0.00 0.00 0.00 0.00 0.00
0.00 0.00 0.00 0.00 0.00 0.00 0.00 0.00 0.00 0.00 0.00 0.00 0.00 0.00 0.00 0.00 0.00 0.00 0.00 0.00 0.00 0.00 0.00 0.00 0.00 0.00 0.00 0.00 0.00 0.00 0.00 0.00 0.00 0.00 0.00 0.00 0.00 0.00 0.00 0.00 0.00 0.00 0.00
MSLP
1017.83 1017.73 1017.72 1017.78 1017.85 1017.91 1017.93 1017.91 1017.84 1017.76 1017.65 1017.54 1017.43 1017.31 1017.20 1017.08 1016.97 1016.86 1016.77 1016.72 1016.73 1016.81 1016.98 1017.26 1017.65 1018.15 1018.76 1019.47 1020.25 1021.09 1021.96 1022.81 1023.61 1024.33 1024.93 1025.41 1025.77 1026.00 1026.15 1026.23 1026.28 1026.33 1026.41
1018.66 1018.58 1018.59 1018.63 1018.69 1018.72 1018.72 1018.67 1018.58 1018.46 1018.34 1018.21 1018.09 1017.98 1017.89 1017.81 1017.74 1017.69 1017.67 1017.68 1017.72 1017.83 1018.00 1018.25 1018.58 1019.00 1019.51 1020.11 1020.79 1021.53 1022.31 1023.09 1023.85 1024.53 1025.12 1025.59 1025.94 1026.16 1026.28 1026.34 1026.35 1026.36 1026.39
1019.49 1019.45 1019.47 1019.53 1019.59 1019.62 1019.60 1019.54 1019.44 1019.31 1019.16 1019.01 1018.87 1018.75 1018.65 1018.58 1018.53 1018.52 1018.55 1018.61 1018.71 1018.86 1019.05 1019.30 1019.60 1019.97 1020.41 1020.93 1021.51 1022.16 1022.84 1023.54 1024.22 1024.86 1025.41 1025.85 1026.17 1026.37 1026.47 1026.49 1026.46 1026.42 1026.39
1020.27 1020.27 1020.32 1020.40 1020.47 1020.51 1020.51 1020.46 1020.37 1020.24 1020.08 1019.92 1019.75 1019.60 1019.48 1019.39 1019.35 1019.35 1019.40 1019.51 1019.65 1019.85 1020.08 1020.34 1020.65 1020.99 1021.38 1021.82 1022.31 1022.86 1023.45 1024.05 1024.65 1025.22 1025.72 1026.12 1026.41 1026.58 1026.66 1026.65 1026.59 1026.50 1026.43
1020.94 1020.99 1021.07 1021.17 1021.26 1021.33 1021.35 1021.34 1021.27 1021.16 1021.02 1020.86 1020.68 1020.51 1020.36 1020.25 1020.19 1020.18 1020.24 1020.37 1020.55 1020.77 1021.04 1021.32 1021.63 1021.96 1022.31 1022.68 1023.10 1023.55 1024.04 1024.55 1025.06 1025.55 1025.98 1026.34 1026.60 1026.75 1026.81 1026.79 1026.71 1026.60 1026.49
1021.51 1021.59 1021.69 1021.80 1021.91 1022.00 1022.07 1022.10 1022.08 1022.03 1021.92 1021.79 1021.62 1021.44 1021.27 1021.13 1021.04 1021.02 1021.07 1021.20 1021.39 1021.63 1021.92 1022.22 1022.53 1022.84 1023.15 1023.47 1023.81 1024.17 1024.56 1024.97 1025.38 1025.79 1026.16 1026.47 1026.70 1026.85 1026.90 1026.88 1026.80 1026.69 1026.56
1021.97 1022.06 1022.16 1022.27 1022.39 1022.51 1022.62 1022.70 1022.76 1022.76 1022.72 1022.63 1022.50 1022.33 1022.16 1022.01 1021.90 1021.85 1021.88 1022.00 1022.19 1022.43 1022.72 1023.02 1023.33 1023.62 1023.89 1024.16 1024.42 1024.70 1024.99 1025.30 1025.62 1025.95 1026.25 1026.52 1026.72 1026.86 1026.92 1026.91 1026.85 1026.75 1026.63
1022.33 1022.42 1022.50 1022.60 1022.72 1022.86 1023.00 1023.14 1023.26 1023.35 1023.39 1023.36 1023.28 1023.15 1022.99 1022.84 1022.72 1022.65 1022.67 1022.76 1022.94 1023.18 1023.46 1023.76 1024.04 1024.31 1024.55 1024.76 1024.95 1025.14 1025.35 1025.56 1025.80 1026.04 1026.28 1026.50 1026.68 1026.81 1026.88 1026.89 1026.85 1026.77 1026.66
1022.64 1022.70 1022.76 1022.84 1022.94 1023.08 1023.25 1023.44 1023.63 1023.79 1023.91 1023.96 1023.93 1023.85 1023.73 1023.59 1023.48 1023.41 1023.41 1023.49 1023.65 1023.88 1024.15 1024.43 1024.70 1024.94 1025.14 1025.30 1025.43 1025.55 1025.67 1025.80 1025.95 1026.12 1026.30 1026.47 1026.62 1026.73 1026.80 1026.82 1026.80 1026.74 1026.66
1022.89 1022.93 1022.96 1023.02 1023.11 1023.24 1023.43 1023.66 1023.90 1024.13 1024.31 1024.43 1024.47 1024.44 1024.36 1024.25 1024.15 1024.09 1024.09 1024.16 1024.32 1024.53 1024.78 1025.05 1025.30 1025.51 1025.68 1025.80 1025.88 1025.93 1025.99 1026.05 1026.13 1026.23 1026.34 1026.46 1026.57 1026.66 1026.71 1026.73 1026.72 1026.68 1026.61
1023.12 1023.15 1023.16 1023.19 1023.27 1023.40 1023.60 1023.86 1024.13 1024.40 1024.64 1024.81 1024.90 1024.92 1024.88 1024.81 1024.73 1024.68 1024.69 1024.77 1024.92 1025.12 1025.36 1025.61 1025.84 1026.03 1026.17 1026.25 1026.29 1026.30 1026.30 1026.31 1026.33 1026.37 1026.43 1026.49 1026.56 1026.61 1026.64 1026.65 1026.63 1026.58 1026.50
1023.33 1023.36 1023.36 1023.39 1023.47 1023.61 1023.82 1024.08 1024.38 1024.67 1024.94 1025.14 1025.27 1025.32 1025.31 1025.27 1025.21 1025.19 1025.21 1025.29 1025.44 1025.64 1025.87 1026.10 1026.31 1026.48 1026.59 1026.65 1026.66 1026.64 1026.61 1026.57 1026.55 1026.54 1026.56 1026.58 1026.60 1026.61 1026.61 1026.58 1026.53 1026.45 1026.36
1023.52 1023.56 1023.59 1023.64 1023.73 1023.88 1024.11 1024.38 1024.68 1024.98 1025.25 1025.46 1025.60 1025.66 1025.68 1025.65 1025.62 1025.61 1025.65 1025.74 1025.88 1026.08 1026.29 1026.50 1026.69 1026.83 1026.93 1026.96 1026.96 1026.92 1026.86 1026.81 1026.76 1026.73 1026.71 1026.70 1026.68 1026.65 1026.60 1026.53 1026.44 1026.33 1026.20
1023.70 1023.78 1023.84 1023.93 1024.06 1024.24 1024.48 1024.75 1025.05 1025.34 1025.59 1025.79 1025.92 1025.99 1026.00 1025.98 1025.97 1025.97 1026.01 1026.11 1026.25 1026.43 1026.62 1026.81 1026.97 1027.09 1027.16 1027.17 1027.15 1027.11 1027.04 1026.99 1026.93 1026.89 1026.86 1026.83 1026.79 1026.73 1026.64 1026.53 1026.39 1026.23 1026.06
1023.87 1024.00 1024.12 1024.26 1024.44 1024.66 1024.91 1025.20 1025.48 1025.75 1025.98 1026.15 1026.25 1026.30 1026.31 1026.29 1026.28 1026.28 1026.33 1026.42 1026.55 1026.70 1026.87 1027.03 1027.15 1027.24 1027.28 1027.29 1027.26 1027.21 1027.15 1027.11 1027.07 1027.04 1027.01 1026.98 1026.92 1026.84 1026.72 1026.57 1026.38 1026.17 1025.94
1024.04 1024.23 1024.41 1024.62 1024.85 1025.11 1025.38 1025.67 1025.94 1026.19 1026.38 1026.52 1026.59 1026.61 1026.60 1026.58 1026.56 1026.56 1026.60 1026.68 1026.80 1026.93 1027.06 1027.18 1027.27 1027.33 1027.34 1027.33 1027.29 1027.25 1027.21 1027.19 1027.17 1027.17 1027.16 1027.14 1027.08 1026.99 1026.85 1026.66 1026.43 1026.16 1025.88
1024.21 1024.46 1024.71 1024.97 1025.25 1025.54 1025.84 1026.13 1026.39 1026.61 1026.77 1026.87 1026.91 1026.91 1026.88 1026.84 1026.82 1026.82 1026.86 1026.92 1027.02 1027.12 1027.23 1027.31 1027.37 1027.39 1027.39 1027.36 1027.33 1027.29 1027.28 1027.27 1027.29 1027.31 1027.32 1027.32 1027.27 1027.17 1027.01 1026.79 1026.52 1026.20 1025.87
1024.40 1024.68 1024.97 1025.28 1025.60 1025.93 1026.24 1026.53 1026.77 1026.96 1027.09 1027.16 1027.18 1027.16 1027.12 1027.08 1027.06 1027.06 1027.09 1027.15 1027.23 1027.31 1027.39 1027.44 1027.47 1027.48 1027.46 1027.43 1027.40 1027.38 1027.39 1027.41 1027.45 1027.49 1027.52 1027.52 1027.48 1027.36 1027.18 1026.93 1026.62 1026.27 1025.88
1024.57 1024.88 1025.21 1025.54 1025.89 1026.22 1026.54 1026.82 1027.05 1027.22 1027.33 1027.38 1027.38 1027.35 1027.31 1027.27 1027.25 1027.25 1027.28 1027.34 1027.41 1027.49 1027.55 1027.60 1027.62 1027.61 1027.60 1027.57 1027.56 1027.56 1027.58 1027.62 1027.67 1027.72 1027.76 1027.75 1027.69 1027.55 1027.34 1027.06 1026.71 1026.31 1025.88
1024.73 1025.04 1025.38 1025.72 1026.07 1026.41 1026.71 1026.98 1027.20 1027.35 1027.44 1027.48 1027.48 1027.45 1027.41 1027.39 1027.37 1027.39 1027.43 1027.49 1027.57 1027.64 1027.71 1027.76 1027.78 1027.79 1027.79 1027.79 1027.79 1027.81 1027.84 1027.89 1027.95 1027.99 1028.01 1027.97 1027.87 1027.70 1027.44 1027.12 1026.72 1026.29 1025.83
1024.84 1025.15 1025.48 1025.81 1026.14 1026.46 1026.75 1027.00 1027.20 1027.35 1027.43 1027.47 1027.48 1027.46 1027.43 1027.42 1027.42 1027.45 1027.51 1027.58 1027.66 1027.75 1027.83 1027.90 1027.95 1027.98 1028.01 1028.04 1028.07 1028.10 1028.15 1028.20 1028.24 1028.25 1028.22 1028.14 1027.99 1027.75 1027.44 1027.07 1026.64 1026.17 1025.69
1024.90 1025.19 1025.49 1025.80 1026.10 1026.40 1026.67 1026.90 1027.08 1027.22 1027.31 1027.36 1027.37 1027.36 1027.36 1027.36 1027.38 1027.42 1027.49 1027.58 1027.68 1027.78 1027.88 1027.97 1028.06 1028.13 1028.20 1028.26 1028.32 1028.38 1028.43 1028.46 1028.48 1028.45 1028.36 1028.22 1027.99 1027.69 1027.33 1026.90 1026.43 1025.93 1025.44
1024.90 1025.15 1025.41 1025.69 1025.96 1026.22 1026.47 1026.68 1026.86 1026.99 1027.09 1027.14 1027.18 1027.19 1027.20 1027.22 1027.25 1027.30 1027.37 1027.47 1027.58 1027.69 1027.82 1027.94 1028.06 1028.18 1028.28 1028.39 1028.48 1028.55 1028.61 1028.63 1028.61 1028.53 1028.39 1028.17 1027.88 1027.51 1027.09 1026.61 1026.12 1025.61 1025.12
1024.82 1025.04 1025.27 1025.50 1025.73 1025.96 1026.18 1026.38 1026.55 1026.69 1026.79 1026.87 1026.92 1026.95 1026.98 1027.01 1027.04 1027.10 1027.17 1027.26 1027.37 1027.49 1027.63 1027.78 1027.93 1028.08 1028.23 1028.37 1028.49 1028.58 1028.64 1028.65 1028.60 1028.47 1028.28 1028.00 1027.65 1027.23 1026.77 1026.27 1025.76 1025.26 1024.80
1024.69 1024.87 1025.06 1025.25 1025.45 1025.65 1025.85 1026.03 1026.20 1026.34 1026.46 1026.55 1026.62 1026.67 1026.70 1026.74 1026.78 1026.82 1026.88 1026.96 1027.07 1027.19 1027.33 1027.49 1027.67 1027.85 1028.03 1028.20 1028.35 1028.46 1028.52 1028.52 1028.44 1028.29 1028.06 1027.74 1027.36 1026.91 1026.43 1025.93 1025.43 1024.95 1024.52
1024.51 1024.66 1024.81 1024.96 1025.13 1025.30 1025.47 1025.64 1025.81 1025.96 1026.08 1026.19 1026.28 1026.34 1026.39 1026.43 1026.46 1026.50 1026.55 1026.61 1026.70 1026.81 1026.95 1027.11 1027.30 1027.50 1027.70 1027.89 1028.06 1028.18 1028.26 1028.26 1028.18 1028.02 1027.77 1027.44 1027.05 1026.61 1026.14 1025.65 1025.19 1024.75 1024.36
Thickness
5596 5598 5600 5600 5601 5603 5605 5605 5607 5609 5611 5612 5613 5615 5616 5617 5618 5620 5620 5621 5622 5622 5622 5622 5621 5621 5619 5616 5614 5611 5608 5605 5596 5584 5579 5576 5574 5572 5570 5568 5565 5562 5560
5586 5587 5588 5589 5591 5592 5593 5594 5595 5598 5599 5600 5602 5603 5604 5605 5606 5608 5608 5609 5610 5610 5610 5611 5609 5608 5606 5604 5602 5598 5595 5592 5588 5578 5570 5567 5565 5563 5560 5558 5556 5553 5550
5576 5577 5578 5578 5579 5580 5581 5582 5584 5586 5587 5589 5590 5591 5592 5593 5595 5596 5597 5598 5598 5598 5598 5598 5597 5597 5594 5592 5590 5587 5584 5580 5575 5570 5562 5557 5555 5553 5551 5548 5546 5543 5541
5566 5567 5567 5567 5568 5569 5570 5571 5572 5574 5576 5577 5578 5579 5580 5582 5584 5585 5586 5586 5586 5586 5586 5586 5585 5585 5583 5582 5579 5575 5572 5567 5562 5558 5553 5548 5545 5542 5540 5538 5536 5533 5531
5556 5556 5556 5556 5558 5559 5559 5559 5560 5562 5564 5565 5567 5568 5569 5570 5572 5573 5574 5574 5575 5574 5574 5574 5574 5574 5572 5571 5568 5564 5561 5556 5551 5548 5543 5540 5536 5534 5531 5527 5526 5523 5521
5546 5546 5546 5546 5547 5547 5547 5548 5549 5550 5552 5554 5555 5556 5557 5558 5559 5562 5563 5562 5563 5562 5562 5561 5562 5561 5560 5559 5557 5554 5551 5547 5542 5538 5534 5531 5527 5524 5521 5519 5517 5516 5515
5536 5536 5536 5536 5536 5536 5537 5537 5538 5538 5540 5541 5543 5544 5544 5545 5548 5550 5551 5551 5551 5550 5550 5550 5550 5549 5548 5547 5545 5543 5540 5537 5535 5531 5527 5524 5521 5518 5515 5512 5509 5507 5505
5526 5525 5526 5526 5526 5526 5527 5526 5527 5527 5529 5530 5531 5533 5534 5534 5537 5539 5540 5540 5539 5539 5539 5539 5539 5538 5537 5537 5535 5533 5530 5527 5525 5523 5520 5517 5514 5510 5507 5504 5501 5499 5497
5517 5516 5516 5516 5516 5517 5517 5516 5517 5518 5519 5520 5521 5523 5524 5524 5527 5529 5531 5530 5529 5528 5528 5529 5529 5528 5527 5527 5526 5524 5521 5519 5517 5515 5513 5511 5508 5505 5502 5499 5497 5496 5495
5509 5508 5508 5508 5508 5508 5508 5508 5508 5510 5510 5511 5512 5513 5515 5516 5518 5520 5521 5521 5519 5518 5518 5518 5519 5519 5519 5518 5517 5515 5513 5510 5509 5508 5506 5504 5502 5499 5497 5494 5492 5491 5490
5501 5501 5500 5500 5500 5500 5500 5500 5501 5502 5502 5503 5503 5504 5506 5508 5509 5511 5512 5512 5511 5510 5510 5509 5509 5510 5510 5510 5509 5507 5505 5503 5502 5501 5499 5498 5496 5494 5492 5490 5488 5487 5486
5495 5494 5493 5494 5494 5493 5493 5494 5494 5495 5495 5495 5496 5497 5498 5499 5501 5502 5503 5503 5503 5503 5502 5502 5502 5502 5502 5502 5501 5500 5498 5497 5496 5495 5493 5492 5491 5490 5489 5488 5486 5485 5483
5489 5488 5488 5488 5487 5488 5488 5488 5488 5488 5488 5488 5489 5490 5490 5491 5492 5494 5495 5496 5496 5496 5495 5496 5496 5496 5495 5494 5494 5493 5492 5491 5490 5489 5487 5485 5484 5484 5484 5485 5484 5483 5482
5485 5483 5482 5482 5482 5482 5483 5483 5483 5483 5483 5483 5484 5483 5484 5484 5486 5487 5488 5489 5490 5490 5490 5489 5489 5489 5488 5487 5487 5486 5485 5484 5483 5482 5481 5480 5480 5481 5481 5480 5480 5480 5480
5480 5479 5478 5478 5478 5477 5476 5476 5478 5478 5480 5480 5479 5480 5480 5480 5481 5483 5483 5484 5484 5484 5484 5484 5483 5482 5482 5481 5480 5480 5479 5479 5478 5477 5477 5477 5477 5478 5477 5476 5475 5476 5477
5477 5475 5474 5473 5473 5473 5473 5472 5473 5475 5476 5477 5477 5476 5476 5477 5477 5478 5479 5480 5480 5480 5480 5478 5476 5476 5476 5475 5475 5475 5474 5474 5473 5473 5473 5473 5473 5473 5474 5473 5473 5473 5474
5476 5473 5472 5471 5471 5471 5471 5472 5471 5471 5472 5473 5473 5473 5474 5474 5475 5475 5476 5476 5476 5476 5475 5473 5471 5471 5471 5471 5470 5470 5470 5469 5468 5469 5469 5469 5469 5470 5470 5470 5471 5472 5473
5475 5473 5471 5470 5470 5469 5470 5470 5470 5471 5470 5469 5470 5471 5472 5472 5473 5473 5474 5474 5473 5472 5470 5469 5468 5467 5467 5467 5467 5467 5466 5466 5466 5465 5465 5465 5466 5466 5467 5468 5468 5469 5471
5474 5473 5471 5470 5469 5469 5469 5469 5469 5469 5469 5469 5469 5470 5471 5471 5472 5472 5472 5472 5471 5469 5468 5467 5466 5465 5465 5465 5464 5464 5463 5463 5462 5462 5462 5462 5463 5463 5465 5466 5467 5467 5469
5475 5474 5472 5471 5470 5469 5469 5469 5470 5470 5470 5470 5470 5471 5471 5471 5472 5471 5470 5470 5469 5468 5467 5466 5465 5465 5464 5463 5462 5462 5461 5461 5460 5460 5460 5460 5461 5462 5463 5465 5467 5469 5470
5478 5476 5475 5474 5473 5472 5472 5472 5471 5471 5472 5472 5472 5472 5472 5472 5472 5472 5471 5471 5470 5469 5468 5467 5466 5465 5463 5462 5461 5461 5460 5460 5459 5459 5459 5460 5461 5462 5463 5465 5467 5469 5471
5481 5479 5478 5477 5476 5475 5475 5474 5474 5474 5474 5475 5475 5475 5475 5475 5475 5474 5474 5473 5472 5471 5470 5468 5467 5465 5464 5463 5462 5461 5461 5460 5460 5459 5459 5460 5461 5463 5464 5466 5469 5471 5472
5485 5483 5482 5481 5480 5479 5479 5478 5478 5478 5478 5478 5478 5478 5479 5478 5478 5478 5477 5476 5475 5474 5472 5471 5469 5468 5466 5465 5464 5462 5462 5462 5461 5460 5460 5461 5463 5464 5465 5467 5469 5472 5474
5489 5488 5487 5486 5484 5484 5483 5483 5483 5483 5483 5483 5483 5483 5483 5483 5483 5482 5481 5480 5479 5477 5476 5474 5473 5471 5470 5468 5467 5466 5465 5464 5464 5463 5463 5463 5464 5466 5467 5469 5471 5472 5474
5494 5493 5492 5491 5490 5489 5489 5489 5488 5488 5488 5488 5488 5488 5488 5488 5488 5487 5486 5484 5483 5482 5481 5479 5477 5476 5474 5472 5471 5470 5469 5468 5467 5467 5466 5465 5466 5467 5468 5470 5471 5473 5473
5499 5498 5497 5497 5496 5496 5495 5495 5495 5494 5494 5494 5494 5494 5494 5494 5493 5492 5491 5490 5488 5487 5485 5484 5482 5480 5478 5476 5475 5473 5472 5471 5471 5470 5469 5468 5468 5469 5470 5471 5472 5472 5473